Lid_Strength_Index
4 4 4 4 4 4 4 3 3 3 3 3 3 4 3 3 3 5 8 7 6 4 4 7 7 7 7 6 5 4 9 11 10 10 9 9 9 10 10 10 10 10 10 10 9
4 4 4 4 4 4 4 4 4 4 4 3 4 4 3 3 5 7 6 5 5 5 8 9 9 8 8 8 6 6 10 10 7 7 8 9 10 9 11 10 11 12 12 10 10
4 4 4 4 5 5 4 4 3 4 4 3 4 4 3 3 7 8 6 6 5 5 7 8 8 8 10 8 7 6 10 7 7 8 9 9 10 9 11 10 9 10 12 11 11
4 4 4 5 5 5 4 4 4 4 3 3 4 4 3 4 12 9 7 6 6 7 7 8 8 9 10 10 8 9 6 6 7 10 11 11 10 11 10 9 11 9 10 11 11
3 4 4 5 5 5 4 4 4 4 3 4 4 4 4 8 9 8 8 9 8 8 8 8 8 8 10 9 8 9 8 8 9 10 10 10 11 10 9 8 11 10 10 11 11
4 5 5 5 5 5 4 4 4 4 4 4 4 4 6 12 9 9 9 9 8 8 8 7 7 7 8 9 9 9 9 9 10 10 10 11 10 11 9 8 11 11 11 11 11
3 4 5 5 5 5 5 4 4 4 4 4 4 4 8 10 9 8 9 9 9 8 8 7 7 8 8 9 9 10 11 10 11 11 11 11 11 12 8 11 11 11 11 11 10
4 4 4 5 5 5 5 4 4 4 4 5 3 5 10 9 7 9 9 9 8 8 8 7 7 8 8 9 10 11 11 13 11 12 11 11 13 8 8 11 10 10 10 11 10
3 4 4 4 5 5 5 4 4 4 4 5 7 9 11 9 11 10 9 10 9 8 8 8 8 8 9 11 11 11 13 12 12 11 11 12 13 10 11 11 10 10 10 11 11
4 4 4 4 4 5 5 4 5 6 7 7 9 11 11 12 11 11 10 10 10 9 9 9 9 11 11 12 15 13 13 12 12 12 13 13 13 11 13 12 11 9 10 11 11
3 4 4 4 4 4 4 7 9 11 10 11 11 12 12 11 11 11 10 10 9 10 13 11 13 14 12 11 11 11 12 12 11 13 14 13 13 11 10 12 12 11 10 11 11
3 4 4 4 5 5 5 9 10 11 12 10 12 12 12 11 13 12 10 11 11 13 12 13 15 12 12 12 12 12 13 13 12 13 15 14 14 12 11 11 12 11 11 10 11
3 4 5 5 5 5 7 10 8 9 12 13 12 12 13 12 12 12 11 11 12 13 13 14 14 14 14 14 14 14 14 13 14 13 14 15 15 14 12 11 11 11 10 10 11
3 4 5 5 7 7 9 8 7 8 13 14 15 13 13 12 13 12 11 11 13 14 13 14 14 15 15 15 14 16 12 13 14 15 17 15 19 14 12 11 12 11 11 11 11
3 4 5 6 7 10 9 8 7 8 18 14 16 12 13 13 14 14 12 12 13 14 14 15 16 16 16 15 14 15 14 14 14 15 16 16 18 15 13 13 12 12 12 11 10
3 4 5 6 7 7 8 8 9 14 19 17 15 16 15 15 15 14 13 12 13 15 15 16 16 15 15 16 16 14 15 15 15 16 20 17 17 16 13 12 12 10 10 11 10
3 4 5 6 9 8 8 10 15 18 14 16 17 16 15 16 16 15 15 16 15 18 18 17 17 16 16 16 16 15 16 18 19 20 20 16 16 15 12 11 12 11 10 10 10
3 4 6 7 8 8 9 13 19 14 13 16 16 16 17 16 16 16 16 16 14 15 15 17 18 17 16 16 16 16 15 17 20 19 17 19 20 16 12 11 11 12 12 10 11
3 8 7 8 8 8 12 17 15 13 15 17 17 17 16 17 16 16 16 15 13 15 15 16 18 18 18 17 16 16 18 15 17 20 20 17 15 13 12 12 11 12 13 13 11
7 8 11 8 7 9 13 16 13 14 15 15 16 15 15 17 18 17 16 14 16 14 14 15 17 19 19 17 17 17 16 18 17 21 21 17 16 16 13 12 11 11 11 12 11
8 11 10 7 7 11 15 14 14 13 14 16 16 15 15 17 16 17 15 15 15 16 14 13 16 20 19 19 18 19 18 18 17 17 19 20 16 11 12 13 13 12 11 11 11
10 12 10 8 13 13 14 12 14 15 14 15 15 15 15 15 16 16 15 15 14 15 18 14 14 18 18 18 18 19 17 16 18 18 18 18 18 11 11 12 13 13 11 11 11
10 13 10 8 16 15 13 15 15 15 14 14 15 14 13 16 16 15 15 15 14 14 14 15 16 19 19 20 20 20 18 17 16 17 19 19 17 13 12 12 11 12 12 11 12
9 13 11 10 11 13 13 13 15 12 14 13 14 14 15 16 14 14 16 17 15 15 14 14 14 17 18 18 17 21 20 18 18 19 19 18 17 14 13 13 11 11 10 10 11
8 11 11 13 13 13 13 12 14 15 13 13 14 14 14 16 16 17 14 17 16 15 14 14 18 18 17 17 18 18 19 19 20 19 19 17 16 14 13 12 12 11 11 12 12
9 9 9 10 11 12 13 14 14 13 13 15 16 13 14 16 14 15 14 15 14 16 15 17 16 20 19 16 18 20 18 19 18 18 18 17 18 14 13 12 13 12 12 13 12
6 7 8 10 10 12 12 13 13 12 11 12 12 13 15 13 12 11 11 11 12 14 16 16 16 19 19 18 18 21 18 18 17 16 16 18 15 13 13 13 12 12 12 13 12